This is the latest recevied weather packets stored in our database for station/object R2AKT-13. If no packets are shown the sender has not sent any weather packets the latest 10 day(s).
| Time | Temp. | Humidity | Pressure | Rain* | Wind** | Luminosity | Snow |
|---|---|---|---|---|---|---|---|
| 1788629560 | 15° C | 68% | 974.8 hPa | - | 0.45 m/s, 250° | - | - |
| 1788628981 | 15° C | 67% | 974.8 hPa | - | 1.34 m/s, 262° | - | - |
| 1788628431 | 15.56° C | 66% | 974.7 hPa | - | 0.89 m/s, 261° | - | - |
| 1788627900 | 15.56° C | 65% | 974.6 hPa | - | 1.34 m/s, 267° | - | - |
| 1788627386 | 15.56° C | 64% | 974.7 hPa | - | 1.34 m/s, 187° | - | - |
| 1788626816 | 15.56° C | 65% | 974.6 hPa | - | 0.89 m/s, 227° | - | - |
| 1788626231 | 15.56° C | 64% | 974.2 hPa | - | 1.79 m/s, 201° | - | - |
| 1788625691 | 15.56° C | 64% | 974.3 hPa | - | 2.68 m/s, 267° | - | - |
| 1788625116 | 15.56° C | 64% | 974.2 hPa | - | 1.79 m/s, 261° | - | - |
| 1788624516 | 16.11° C | 63% | 974.1 hPa | - | 1.79 m/s, 237° | - | - |
| 1788623921 | 16.11° C | 63% | 973.9 hPa | - | 0.89 m/s, 226° | - | - |
| 1788623416 | 16.11° C | 63% | 973.6 hPa | - | 2.24 m/s, 269° | - | - |
| 1788622821 | 16.11° C | 62% | 973.6 hPa | - | 1.79 m/s, 257° | - | - |
| 1788622336 | 16.11° C | 63% | 973.6 hPa | - | 1.34 m/s, 260° | - | - |
| 1788621736 | 16.11° C | 63% | 973.5 hPa | - | 1.34 m/s, 262° | - | - |
| 1788621196 | 16.67° C | 62% | 973.2 hPa | - | 1.79 m/s, 264° | - | - |
| 1788620665 | 16.67° C | 60% | 972.8 hPa | - | 1.34 m/s, 231° | - | - |
| 1788620156 | 17.22° C | 58% | 972.7 hPa | - | 2.24 m/s, 227° | - | - |
| 1788619641 | 17.22° C | 60% | 972.8 hPa | - | 1.79 m/s, 200° | - | - |
| 1788619083 | 17.22° C | 59% | 972.7 hPa | - | 2.24 m/s, 254° | - | - |
| 1788618501 | 17.22° C | 60% | 972.8 hPa | - | 2.24 m/s, 149° | - | - |
| 1788617901 | 17.22° C | 60% | 972.2 hPa | - | 2.24 m/s, 180° | - | - |
| 1788617306 | 17.22° C | 61% | 972.2 hPa | - | 1.79 m/s, 236° | - | - |
| 1788616776 | 17.22° C | 64% | 972.3 hPa | - | 0.89 m/s, 263° | - | - |
| 1788616261 | 17.22° C | 63% | 971.9 hPa | - | 1.34 m/s, 263° | - | - |
* Rain since midnight (hover to see other rain measurements)
** Current wind speed in m/s (hover to see current wind gust speed)